Location: Aalen
(48.8330°N, 10.1000°E)
Time: 13:12:55
(UTC+02:00)

IRIDIUM 33 DEB - Pass Details

Date: 06 February 2022
Orbit: 754 x 833 km, 86.3° (Epoch: 25 May)

Event Time Altitude Azimuth Distance (km) Brightness Sun altitude
Rises 18:39:56 0° 8° (N) 3,392 ? -12.6°
Reaches altitude 10° 18:43:24 10° 30° (NNE) 2,457 ? -13.2°
Enters shadow 18:45:32 15° 53° (NE) 2,128 ? -13.5°
